Location: Les Jeannots
(43.2262°N, 5.5774°E)
Time: 07:28:14
(UTC+00:00)

Cosmos 2333 Rocket - Pass Details

Date: 05 July 2020
Orbit: 837 x 864 km, 70.8° (Epoch: 04 August)

Event Time Altitude Azimuth Distance (km) Brightness Sun altitude
Rises 22:22:49 0° 236° (SW) 3,395 5.2 -21.6°
Reaches altitude 10° 22:25:33 10° 247° (WSW) 2,468 4.6 -21.8°
Maximum altitude 22:30:27 29° 307° (NW) 1,508 4.0 -22.1°
Drops below altitude 10° 22:35:25 10° 7° (N) 2,496 5.6 -22.3°
Sets 22:38:14 0° 18° (NNE) 3,440 6.3 -22.5°
